Skagway, AK

7:57 AM AKST on February 27, 2017 (GMT -0900)
Skagway

Weather History for PAGY - April, 2012

Change the Weather History Date:

Friday, April 20, 2012

  Actual Average Record
Temperature  
Mean Temperature 47 °F -  
Max Temperature 54 °F 48 °F 66 °F (1989)
Min Temperature 42 °F 33 °F 21 °F (1969)
Degree Days  
Heating Degree Days 18    
Moisture  
Dew Point 36 °F    
Average Humidity 72    
Maximum Humidity 82    
Minimum Humidity 53    
Precipitation  
Precipitation 0.04 in - - ()
Sea Level Pressure  
Sea Level Pressure 29.70 in    
Wind  
Wind Speed 10 mph (SSW)    
Max Wind Speed 34 mph    
Max Gust Speed 47 mph    
Visibility 10 miles    
Events Rain    
Averages and records for this station are not official NWS values.
T = Trace of Precipitation, MM = Missing Value Source: NWS Daily Summary

Daily Weather History Graph

Daily Weather History Graph

Search for Another Location

Airport or City:

Trip Planner

Search our weather history database for the weather conditions in past years. The results will help you decide how hot, cold, wet, or windy it might be!

Date:

Astronomy

Apr. 20, 2012 Rise Set
Actual Time 5:30 AM AKDT 8:31 PM AKDT
Civil Twilight 4:43 AM AKDT 9:19 PM AKDT
Nautical Twilight 3:38 AM AKDT 10:24 PM AKDT
Astronomical Twilight 1:53 AM AKDT 12:18 AM AKDT
Moon 4:58 AM AKDT (4/20) 8:32 PM AKDT (4/20)
Length of Visible Light 16h 36m
Length of Day
15h 01m
Waning Crescent, 0% of the Moon is Illuminated
Apr 20
Waning Crescent
Apr 20
New
Apr 29
First Quarter
May 5
Full
May 12
Last Quarter

Hourly Weather History & Observations

Time (AKDT) Temp. Windchill Dew Point Humidity Pressure Visibility Wind Dir Wind Speed Gust Speed Precip Events Conditions
12:53 AM 45.0 °F - 34.0 °F 65% 29.52 in 10.0 mi Calm Calm - N/A   Overcast
1:53 AM 48.9 °F - 34.0 °F 56% 29.52 in 10.0 mi NNE 18.4 mph 23.0 mph N/A   Overcast
2:53 AM 46.0 °F 43.9 °F 35.1 °F 66% 29.53 in 10.0 mi NNE 4.6 mph - N/A   Overcast
3:53 AM 45.0 °F - 35.1 °F 68% 29.54 in 10.0 mi Calm Calm - N/A   Overcast
4:53 AM 44.1 °F 42.5 °F 35.1 °F 71% 29.56 in 10.0 mi NW 3.5 mph - N/A   Overcast
5:53 AM 43.0 °F - 36.0 °F 76% 29.58 in 10.0 mi Calm Calm - N/A   Overcast
6:53 AM 43.0 °F - 36.0 °F 76% 29.58 in 10.0 mi Calm Calm - N/A   Mostly Cloudy
7:53 AM 43.0 °F - 37.0 °F 80% 29.60 in 10.0 mi Calm Calm - N/A   Clear
8:53 AM 45.0 °F - 37.0 °F 74% 29.60 in 10.0 mi Calm Calm - N/A   Mostly Cloudy
9:53 AM 46.0 °F 42.5 °F 37.9 °F 73% 29.62 in 10.0 mi SSW 6.9 mph - N/A   Mostly Cloudy
10:53 AM 45.0 °F 40.1 °F 39.0 °F 80% 29.62 in 10.0 mi SW 9.2 mph - N/A   Mostly Cloudy
11:53 AM 48.9 °F - 37.0 °F 64% 29.62 in 10.0 mi SSW 8.1 mph - N/A   Clear
12:53 PM 46.9 °F - 37.9 °F 71% 29.64 in 10.0 mi SSW 10.4 mph - N/A   Scattered Clouds
1:53 PM 52.0 °F - 35.1 °F 53% 29.65 in 10.0 mi SSW 11.5 mph - N/A   Overcast
2:53 PM 50.0 °F - 39.0 °F 66% 29.67 in 10.0 mi SSW 12.7 mph - N/A   Overcast
3:53 PM 48.0 °F - 37.9 °F 68% 29.70 in 10.0 mi SSW 33.4 mph 47.2 mph 0.01 in   Mostly Cloudy
4:53 PM 45.0 °F 36.0 °F 39.0 °F 80% 29.75 in 10.0 mi SSW 25.3 mph 34.5 mph 0.00 in Rain Light Rain
5:53 PM 44.1 °F 35.4 °F 39.0 °F 82% 29.81 in 8.0 mi SSW 21.9 mph 29.9 mph 0.02 in Rain Light Rain
6:10 PM 42.8 °F 33.8 °F 37.4 °F 81% 29.81 in 6.0 mi SSW 21.9 mph 29.9 mph 0.00 in Rain Light Rain
6:53 PM 43.0 °F 35.4 °F 37.9 °F 82% 29.84 in 10.0 mi SSW 16.1 mph - 0.00 in Rain Light Rain
7:53 PM 43.0 °F 34.8 °F 37.0 °F 80% 29.88 in 10.0 mi SSW 18.4 mph 28.8 mph 0.01 in Rain Light Rain
8:53 PM 43.0 °F 33.3 °F 36.0 °F 76% 29.91 in 10.0 mi SSW 25.3 mph 34.5 mph 0.00 in Rain Light Rain
9:53 PM 42.1 °F 31.3 °F 35.1 °F 76% 29.94 in 10.0 mi SSW 29.9 mph 42.6 mph 0.00 in   Overcast
10:53 PM 42.1 °F 30.6 °F 34.0 °F 73% 29.97 in 10.0 mi SSW 34.5 mph 41.4 mph N/A   Overcast
11:53 PM 42.1 °F 30.8 °F 34.0 °F 73% 30.02 in 10.0 mi SSW 33.4 mph 41.4 mph N/A   Overcast